Location: Arthurs Seat
(13.1500°N, 59.6000°W)
Time: 16:17:37
(UTC+00:00)

Ariane Rocket - Pass Details

Date: 25 August 2019
Orbit: 760 x 770 km, 98.8° (Epoch: 16 September)

Event Time Altitude Azimuth Distance (km) Brightness Sun altitude
Rises 22:42:01 0° 149° (SSE) 3,217 5.8 -7.5°
Reaches altitude 10° 22:44:29 10° 140° (SE) 2,290 5.0 -8.1°
Maximum altitude 22:49:02 35° 75° (ENE) 1,216 3.6 -9.2°
Drops below altitude 10° 22:53:34 10° 11° (N) 2,287 5.5 -10.3°
Sets 22:56:02 0° 2° (N) 3,212 6.4 -10.8°
